Tracking 18917 objects as of 16-Jan-2018
HD Live streaming from Space Station
objects crossing your sky now

USA 121

Track USA 121 now!
10-day predictions
USA 121 is classified as:


NORAD ID: 23908
Int'l Code: 1996-029C
Perigee: 646.9 km
Apogee: 1,579.4 km
Inclination: 63.4 °
Period: 107.4 minutes
Semi major axis: 7484 km
RCS: Unknown
Launch date: May 12, 1996
Source: United States (US)
Launch site: AIR FORCE WESTERN TEST RANGE (AFWTR)
aabbcc
Your satellite tracking list
Your tracking list is empty




NASA's NSSDC Master Catalog

Two Line Element Set (TLE):
1 23908U 96029C   18014.70048704 0.00000050  00000-0  28326-4 0    05
2 23908  63.3723 230.0498 0623000  13.7216 346.2784 13.40871516    05
Source of the keplerian elements: McCants